User: anonymous   Login
Location: Владивосток
(43.1151°N, 131.8856°E)
Time: 04:52:47
(UTC+10:00)
Language:

UKube-1 - Orbit

View from above orbital plane
View from above orbital plane
View from above satellite
View from above satellite

Ground track
Ground track

The orbit data is extracted from the following two-line orbital elements,

1 40074U 14037F   24113.32027293  .00016873  00000-0  16377-2 0  9990
2 40074  98.3420  39.8639 0002375 246.3303 113.7666 14.92715941530448
Epoch (UTC): 22 April 2024 07:41:11
Eccentricity: 0.0002375
inclination: 98.3420°
perigee height: 588 km
apogee height: 591 km
right ascension of ascending node: 39.8639°
argument of perigee: 246.3303°
revolutions per day: 14.92715941
mean anomaly at epoch: 113.7666°
orbit number at epoch: 53044

The dashed part of the orbit path shows where the satellite is in the earth's shadow,  

DLR